Hourly Data Report for July 04, 2022

WIARTON A
ONTARIO
Current Station Operator: NAVCAN

44°44'39.000" N
81°06'31.000" W
221.90 m
6119499
71633
YVV

Download Data

Hourly Data (July 2022)
Hourly Data Report for July 4, 2022
TIME
LST
Temp Definition
°C
Dew Point Definition
°C
Rel Hum Definition
%
Precip. Amount Definition
mm

Wind Dir Definition
10's deg

Wind Spd Definition
km/h
Visibility Definition
km
Stn Press Definition
kPa
Hmdx Definition


Wind Chill Definition


Weather Definition


00:00 8.9 8.3 96   12 7 24.1 99.50     LegendNANA
01:00 8.8 8.2 96   13 8 24.1 99.48     Mainly Clear
02:00 9.4 8.6 94   11 9 24.1 99.45     LegendNANA
03:00 10.2 8.7 90   11 9 24.1 99.41     LegendNANA
04:00 11.4 9.8 90   12 10 24.1 99.45     Cloudy
05:00 11.3 9.4 88   13 9 24.1 99.47     LegendNANA
06:00 12.4 9.5 82   11 5 24.1 99.51     LegendNANA
07:00 16.6 12.2 75   14 4 24.1 99.50     Mainly Clear
08:00 16.8 11.6 71   1 3 24.1 99.49     LegendNANA
09:00 17.0 12.4 74   33 3 24.1 99.50     LegendNANA
10:00 16.5 12.8 79   8 3 24.1 99.47     Cloudy
11:00 17.7 13.8 78   4 5 24.1 99.45     LegendNANA
12:00 17.0 12.5 75   36 3 24.1 99.44     LegendNANA
13:00 15.8 11.3 74   33 4 24.1 99.45     Cloudy
14:00 17.1 12.2 72   34 4 24.1 99.36     LegendNANA
15:00 18.3 14.3 77   31 4 24.1 99.31     LegendNANA
16:00 18.6 13.9 74   3 8 24.1 99.27     Cloudy
17:00 20.0 13.2 65   9 11 24.1 99.21     LegendNANA
18:00 19.5 14.9 74   7 4 24.1 99.16     LegendNANA
19:00 18.5 15.8 84   36 1 24.1 99.14     Cloudy
20:00 17.7 15.9 89   36 2 24.1 99.08     LegendNANA
21:00 16.4 14.1 86   34 3 24.1 99.05     LegendNANA
22:00 15.4 13.2 87   30 5 24.1 99.02     Cloudy
23:00 16.1 14.1 88   34 9 24.1 98.97     LegendNANA

Notes on Data Quality.

Legend

  • E = Estimated
  • M = Missing
  • NA = Not Available*
  • [empty] = Indicates an unobserved value
Date modified: